owner,sensor,date,latitude,longitude,vertical_datum,wind_speed,wind_to_direction,wind_speed_of_gust,qcFlag 
DISL,ioos:station:DISL:MHPA:1,2014-12-01T00:00:00Z,30.6671,-87.9365,8.5,0.73,98.3,-9999.0,'1111122,1111122,1111122' 
DISL,ioos:station:DISL:MHPA:1,2014-12-01T00:30:00Z,30.6671,-87.9365,8.5,1.99,102.6,-9999.0,'1111122,1111122,1111122' 
DISL,ioos:station:DISL:MHPA:1,2014-12-01T01:00:00Z,30.6671,-87.9365,8.5,1.83,109.6,-9999.0,'1111122,1111122,1111122' 
DISL,ioos:station:DISL:MHPA:1,2014-12-01T01:30:00Z,30.6671,-87.9365,8.5,1.79,105.5,-9999.0,'1111122,1111122,1111122' 
DISL,ioos:station:DISL:MHPA:1,2014-12-01T02:00:00Z,30.6671,-87.9365,8.5,1.9,98.3,-9999.0,'1111122,1111122,1111122' 
DISL,ioos:station:DISL:MHPA:1,2014-12-01T02:30:00Z,30.6671,-87.9365,8.5,1.81,110.5,-9999.0,'1111122,1111122,1111122' 
DISL,ioos:station:DISL:MHPA:1,2014-12-01T03:00:00Z,30.6671,-87.9365,8.5,2.22,96.8,-9999.0,'1111122,1111122,1111122' 
DISL,ioos:station:DISL:MHPA:1,2014-12-01T03:30:00Z,30.6671,-87.9365,8.5,2.9,113.3,-9999.0,'1111122,1111122,1111122' 
DISL,ioos:station:DISL:MHPA:1,2014-12-01T04:00:00Z,30.6671,-87.9365,8.5,3.03,105.8,-9999.0,'1111122,1111122,1111122' 
DISL,ioos:station:DISL:MHPA:1,2014-12-01T04:30:00Z,30.6671,-87.9365,8.5,3.6,107.4,-9999.0,'1111122,1111122,1111122' 
DISL,ioos:station:DISL:MHPA:1,2014-12-01T05:00:00Z,30.6671,-87.9365,8.5,2.96,105.6,-9999.0,'1111122,1111122,1111122' 
DISL,ioos:station:DISL:MHPA:1,2014-12-01T05:30:00Z,30.6671,-87.9365,8.5,2.78,105.1,-9999.0,'1111122,1111122,1111122' 
DISL,ioos:station:DISL:MHPA:1,2014-12-01T06:00:00Z,30.6671,-87.9365,8.5,2.65,101.3,-9999.0,'1111122,1111122,1111122' 
DISL,ioos:station:DISL:MHPA:1,2014-12-01T06:30:00Z,30.6671,-87.9365,8.5,2.46,98.3,-9999.0,'1111122,1111122,1111122' 
DISL,ioos:station:DISL:MHPA:1,2014-12-01T07:00:00Z,30.6671,-87.9365,8.5,2.31,99.9,-9999.0,'1111122,1111122,1111122' 
DISL,ioos:station:DISL:MHPA:1,2014-12-01T07:30:00Z,30.6671,-87.9365,8.5,2.42,91.8,-9999.0,'1111122,1111122,1111122' 
DISL,ioos:station:DISL:MHPA:1,2014-12-01T08:00:00Z,30.6671,-87.9365,8.5,2.58,99.4,-9999.0,'1111122,1111122,1111122' 
DISL,ioos:station:DISL:MHPA:1,2014-12-01T08:30:00Z,30.6671,-87.9365,8.5,2.66,97.9,-9999.0,'1111122,1111122,1111122' 
DISL,ioos:station:DISL:MHPA:1,2014-12-01T09:00:00Z,30.6671,-87.9365,8.5,2.74,99.1,-9999.0,'1111122,1111122,1111122' 
DISL,ioos:station:DISL:MHPA:1,2014-12-01T09:30:00Z,30.6671,-87.9365,8.5,2.4,91.3,-9999.0,'1111122,1111122,1111122' 
DISL,ioos:station:DISL:MHPA:1,2014-12-01T10:00:00Z,30.6671,-87.9365,8.5,2.61,102.0,-9999.0,'1111122,1111122,1111122' 
DISL,ioos:station:DISL:MHPA:1,2014-12-01T10:30:00Z,30.6671,-87.9365,8.5,3.01,105.5,-9999.0,'1111122,1111122,1111122' 
DISL,ioos:station:DISL:MHPA:1,2014-12-01T11:00:00Z,30.6671,-87.9365,8.5,2.49,98.3,-9999.0,'1111122,1111122,1111122' 
DISL,ioos:station:DISL:MHPA:1,2014-12-01T11:30:00Z,30.6671,-87.9365,8.5,2.54,90.7,-9999.0,'1111122,1111122,1111122' 
DISL,ioos:station:DISL:MHPA:1,2014-12-01T12:00:00Z,30.6671,-87.9365,8.5,1.19,94.8,-9999.0,'1111122,1111122,1111122' 
DISL,ioos:station:DISL:MHPA:1,2014-12-01T12:30:00Z,30.6671,-87.9365,8.5,1.78,69.56,-9999.0,'1111122,1111122,1111122' 
DISL,ioos:station:DISL:MHPA:1,2014-12-01T13:00:00Z,30.6671,-87.9365,8.5,1.71,73.42,-9999.0,'1111122,1111122,1111122' 
DISL,ioos:station:DISL:MHPA:1,2014-12-01T13:30:00Z,30.6671,-87.9365,8.5,1.38,125.6,-9999.0,'1111122,1111122,1111122' 
DISL,ioos:station:DISL:MHPA:1,2014-12-01T14:00:00Z,30.6671,-87.9365,8.5,2.02,127.7,-9999.0,'1111122,1111122,1111122' 
DISL,ioos:station:DISL:MHPA:1,2014-12-01T14:30:00Z,30.6671,-87.9365,8.5,0.4,121.1,-9999.0,'1111122,1111122,1111122' 
DISL,ioos:station:DISL:MHPA:1,2014-12-01T15:00:00Z,30.6671,-87.9365,8.5,1.14,49.1,-9999.0,'1111122,1111122,1111122' 
DISL,ioos:station:DISL:MHPA:1,2014-12-01T15:30:00Z,30.6671,-87.9365,8.5,1.66,122.6,-9999.0,'1111122,1111122,1111122' 
DISL,ioos:station:DISL:MHPA:1,2014-12-01T16:00:00Z,30.6671,-87.9365,8.5,2.65,154.0,-9999.0,'1111122,1111122,1111122' 
DISL,ioos:station:DISL:MHPA:1,2014-12-01T16:30:00Z,30.6671,-87.9365,8.5,1.92,191.5,-9999.0,'1111122,1111122,1111122' 
DISL,ioos:station:DISL:MHPA:1,2014-12-01T17:00:00Z,30.6671,-87.9365,8.5,2.94,183.9,-9999.0,'1111122,1111122,1111122' 
DISL,ioos:station:DISL:MHPA:1,2014-12-01T17:30:00Z,30.6671,-87.9365,8.5,2.85,184.4,-9999.0,'1111122,1111122,1111122' 
DISL,ioos:station:DISL:MHPA:1,2014-12-01T18:00:00Z,30.6671,-87.9365,8.5,2.5,198.3,-9999.0,'1111122,1111122,1111122' 
DISL,ioos:station:DISL:MHPA:1,2014-12-01T18:30:00Z,30.6671,-87.9365,8.5,2.99,222.1,-9999.0,'1111122,1111122,1111122' 
DISL,ioos:station:DISL:MHPA:1,2014-12-01T19:00:00Z,30.6671,-87.9365,8.5,3.86,236.0,-9999.0,'1111122,1111122,1111122' 
DISL,ioos:station:DISL:MHPA:1,2014-12-01T19:30:00Z,30.6671,-87.9365,8.5,2.99,227.8,-9999.0,'1111122,1111122,1111122' 
DISL,ioos:station:DISL:MHPA:1,2014-12-01T20:00:00Z,30.6671,-87.9365,8.5,2.72,219.8,-9999.0,'1111122,1111122,1111122' 
DISL,ioos:station:DISL:MHPA:1,2014-12-01T20:30:00Z,30.6671,-87.9365,8.5,2.12,205.6,-9999.0,'1111122,1111122,1111122' 
DISL,ioos:station:DISL:MHPA:1,2014-12-01T21:00:00Z,30.6671,-87.9365,8.5,1.8,211.1,-9999.0,'1111122,1111122,1111122' 
DISL,ioos:station:DISL:MHPA:1,2014-12-01T21:30:00Z,30.6671,-87.9365,8.5,1.13,178.1,-9999.0,'1111122,1111122,1111122' 
DISL,ioos:station:DISL:MHPA:1,2014-12-01T22:00:00Z,30.6671,-87.9365,8.5,1.09,211.4,-9999.0,'1111122,1111122,1111122' 
DISL,ioos:station:DISL:MHPA:1,2014-12-01T22:30:00Z,30.6671,-87.9365,8.5,1.0,194.8,-9999.0,'1111122,1111122,1111122' 
DISL,ioos:station:DISL:MHPA:1,2014-12-01T23:00:00Z,30.6671,-87.9365,8.5,0.77,175.6,-9999.0,'1111122,1111122,1111122' 
DISL,ioos:station:DISL:MHPA:1,2014-12-01T23:30:00Z,30.6671,-87.9365,8.5,0.9,157.4,-9999.0,'1111122,1111122,1111122' 
DISL,ioos:station:DISL:MHPA:1,2014-12-02T00:00:00Z,30.6671,-87.9365,8.5,0.99,152.8,-9999.0,'1111122,1111122,1111122' 
DISL,ioos:station:DISL:MHPA:1,2014-12-02T00:30:00Z,30.6671,-87.9365,8.5,0.41,130.9,-9999.0,'1111122,1111122,1111122' 
DISL,ioos:station:DISL:MHPA:1,2014-12-02T01:00:00Z,30.6671,-87.9365,8.5,0.05,60.69,-9999.0,'1111122,1111122,1111122' 
DISL,ioos:station:DISL:MHPA:1,2014-12-02T01:30:00Z,30.6671,-87.9365,8.5,0.22,95.6,-9999.0,'1111122,1111122,1111122' 
DISL,ioos:station:DISL:MHPA:1,2014-12-02T02:00:00Z,30.6671,-87.9365,8.5,0.57,100.1,-9999.0,'1111122,1111122,1111122' 
DISL,ioos:station:DISL:MHPA:1,2014-12-02T02:30:00Z,30.6671,-87.9365,8.5,0.94,105.8,-9999.0,'1111122,1111122,1111122' 
DISL,ioos:station:DISL:MHPA:1,2014-12-02T03:00:00Z,30.6671,-87.9365,8.5,1.49,104.5,-9999.0,'1111122,1111122,1111122' 
DISL,ioos:station:DISL:MHPA:1,2014-12-02T03:30:00Z,30.6671,-87.9365,8.5,0.06,99.8,-9999.0,'1111122,1111122,1111122' 
DISL,ioos:station:DISL:MHPA:1,2014-12-02T04:00:00Z,30.6671,-87.9365,8.5,0.47,19.18,-9999.0,'1111122,1111122,1111122' 
DISL,ioos:station:DISL:MHPA:1,2014-12-02T04:30:00Z,30.6671,-87.9365,8.5,0.38,46.26,-9999.0,'1111122,1111122,1111122' 
DISL,ioos:station:DISL:MHPA:1,2014-12-02T05:00:00Z,30.6671,-87.9365,8.5,0.22,91.2,-9999.0,'1111122,1111122,1111122' 
DISL,ioos:station:DISL:MHPA:1,2014-12-02T05:30:00Z,30.6671,-87.9365,8.5,0.16,99.4,-9999.0,'1111122,1111122,1111122' 
DISL,ioos:station:DISL:MHPA:1,2014-12-02T06:00:00Z,30.6671,-87.9365,8.5,1.31,341.1,-9999.0,'1111122,1111122,1111122' 
DISL,ioos:station:DISL:MHPA:1,2014-12-02T06:30:00Z,30.6671,-87.9365,8.5,1.15,17.71,-9999.0,'1111122,1111122,1111122' 
DISL,ioos:station:DISL:MHPA:1,2014-12-02T07:00:00Z,30.6671,-87.9365,8.5,1.61,347.6,-9999.0,'1111122,1111122,1111122' 
DISL,ioos:station:DISL:MHPA:1,2014-12-02T07:30:00Z,30.6671,-87.9365,8.5,1.12,15.52,-9999.0,'1111122,1111122,1111122' 
DISL,ioos:station:DISL:MHPA:1,2014-12-02T08:00:00Z,30.6671,-87.9365,8.5,0.79,83.6,-9999.0,'1111122,1111122,1111122' 
DISL,ioos:station:DISL:MHPA:1,2014-12-02T08:30:00Z,30.6671,-87.9365,8.5,1.48,99.0,-9999.0,'1111122,1111122,1111122' 
DISL,ioos:station:DISL:MHPA:1,2014-12-02T09:00:00Z,30.6671,-87.9365,8.5,1.95,359.9,-9999.0,'1111122,1111122,1111122' 
DISL,ioos:station:DISL:MHPA:1,2014-12-02T09:30:00Z,30.6671,-87.9365,8.5,2.25,344.9,-9999.0,'1111122,1111122,1111122' 
DISL,ioos:station:DISL:MHPA:1,2014-12-02T10:00:00Z,30.6671,-87.9365,8.5,1.63,355.2,-9999.0,'1111122,1111122,1111122' 
DISL,ioos:station:DISL:MHPA:1,2014-12-02T10:30:00Z,30.6671,-87.9365,8.5,1.57,31.4,-9999.0,'1111122,1111122,1111122' 
DISL,ioos:station:DISL:MHPA:1,2014-12-02T11:00:00Z,30.6671,-87.9365,8.5,1.46,352.4,-9999.0,'1111122,1111122,1111122' 
DISL,ioos:station:DISL:MHPA:1,2014-12-02T11:30:00Z,30.6671,-87.9365,8.5,2.07,1.727,-9999.0,'1111122,1111122,1111122' 
DISL,ioos:station:DISL:MHPA:1,2014-12-02T12:00:00Z,30.6671,-87.9365,8.5,2.22,355.6,-9999.0,'1111122,1111122,1111122' 
DISL,ioos:station:DISL:MHPA:1,2014-12-02T12:30:00Z,30.6671,-87.9365,8.5,1.02,2.691,-9999.0,'1111122,1111122,1111122' 
DISL,ioos:station:DISL:MHPA:1,2014-12-02T13:00:00Z,30.6671,-87.9365,8.5,1.5,359.1,-9999.0,'1111122,1111122,1111122' 
DISL,ioos:station:DISL:MHPA:1,2014-12-02T13:30:00Z,30.6671,-87.9365,8.5,2.81,348.8,-9999.0,'1111122,1111122,1111122' 
DISL,ioos:station:DISL:MHPA:1,2014-12-02T14:00:00Z,30.6671,-87.9365,8.5,1.55,5.175,-9999.0,'1111122,1111122,1111122' 
DISL,ioos:station:DISL:MHPA:1,2014-12-02T14:30:00Z,30.6671,-87.9365,8.5,2.56,348.1,-9999.0,'1111122,1111122,1111122' 
DISL,ioos:station:DISL:MHPA:1,2014-12-02T15:00:00Z,30.6671,-87.9365,8.5,2.45,3.465,-9999.0,'1111122,1111122,1111122' 
DISL,ioos:station:DISL:MHPA:1,2014-12-02T15:30:00Z,30.6671,-87.9365,8.5,1.81,20.27,-9999.0,'1111122,1111122,1111122' 
DISL,ioos:station:DISL:MHPA:1,2014-12-02T16:00:00Z,30.6671,-87.9365,8.5,2.7,15.4,-9999.0,'1111122,1111122,1111122' 
DISL,ioos:station:DISL:MHPA:1,2014-12-02T16:30:00Z,30.6671,-87.9365,8.5,2.63,8.95,-9999.0,'1111122,1111122,1111122' 
DISL,ioos:station:DISL:MHPA:1,2014-12-02T17:00:00Z,30.6671,-87.9365,8.5,1.02,73.77,-9999.0,'1111122,1111122,1111122' 
DISL,ioos:station:DISL:MHPA:1,2014-12-02T17:30:00Z,30.6671,-87.9365,8.5,1.86,2.311,-9999.0,'1111122,1111122,1111122' 
DISL,ioos:station:DISL:MHPA:1,2014-12-02T18:00:00Z,30.6671,-87.9365,8.5,2.05,354.2,-9999.0,'1111122,1111122,1111122' 
DISL,ioos:station:DISL:MHPA:1,2014-12-02T18:30:00Z,30.6671,-87.9365,8.5,0.98,287.4,-9999.0,'1111122,1111122,1111122' 
DISL,ioos:station:DISL:MHPA:1,2014-12-02T19:00:00Z,30.6671,-87.9365,8.5,2.16,223.7,-9999.0,'1111122,1111122,1111122' 
DISL,ioos:station:DISL:MHPA:1,2014-12-02T19:30:00Z,30.6671,-87.9365,8.5,1.41,223.5,-9999.0,'1111122,1111122,1111122' 
DISL,ioos:station:DISL:MHPA:1,2014-12-02T20:00:00Z,30.6671,-87.9365,8.5,2.19,242.2,-9999.0,'1111122,1111122,1111122' 
DISL,ioos:station:DISL:MHPA:1,2014-12-02T20:30:00Z,30.6671,-87.9365,8.5,1.6,247.3,-9999.0,'1111122,1111122,1111122' 
DISL,ioos:station:DISL:MHPA:1,2014-12-02T21:00:00Z,30.6671,-87.9365,8.5,2.81,210.3,-9999.0,'1111122,1111122,1111122' 
DISL,ioos:station:DISL:MHPA:1,2014-12-02T21:30:00Z,30.6671,-87.9365,8.5,3.4,187.5,-9999.0,'1111122,1111122,1111122' 
DISL,ioos:station:DISL:MHPA:1,2014-12-02T22:00:00Z,30.6671,-87.9365,8.5,3.72,163.7,-9999.0,'1111122,1111122,1111122' 
DISL,ioos:station:DISL:MHPA:1,2014-12-02T22:30:00Z,30.6671,-87.9365,8.5,3.4,167.7,-9999.0,'1111122,1111122,1111122' 
DISL,ioos:station:DISL:MHPA:1,2014-12-02T23:00:00Z,30.6671,-87.9365,8.5,3.27,156.6,-9999.0,'1111122,1111122,1111122' 
DISL,ioos:station:DISL:MHPA:1,2014-12-02T23:30:00Z,30.6671,-87.9365,8.5,2.3,155.8,-9999.0,'1111122,1111122,1111122' 
DISL,ioos:station:DISL:MHPA:1,2014-12-03T00:00:00Z,30.6671,-87.9365,8.5,2.68,158.7,-9999.0,'1111122,1111122,1111122' 
DISL,ioos:station:DISL:MHPA:1,2014-12-03T00:30:00Z,30.6671,-87.9365,8.5,0.89,85.5,-9999.0,'1111122,1111122,1111122' 
DISL,ioos:station:DISL:MHPA:1,2014-12-03T01:00:00Z,30.6671,-87.9365,8.5,1.39,344.8,-9999.0,'1111122,1111122,1111122' 
DISL,ioos:station:DISL:MHPA:1,2014-12-03T01:30:00Z,30.6671,-87.9365,8.5,0.79,31.34,-9999.0,'1111122,1111122,1111122' 
DISL,ioos:station:DISL:MHPA:1,2014-12-03T02:00:00Z,30.6671,-87.9365,8.5,0.74,8.13,-9999.0,'1111122,1111122,1111122' 
DISL,ioos:station:DISL:MHPA:1,2014-12-03T02:30:00Z,30.6671,-87.9365,8.5,0.13,36.26,-9999.0,'1111122,1111122,1111122' 
DISL,ioos:station:DISL:MHPA:1,2014-12-03T03:00:00Z,30.6671,-87.9365,8.5,0.52,20.19,-9999.0,'1111122,1111122,1111122' 
DISL,ioos:station:DISL:MHPA:1,2014-12-03T03:30:00Z,30.6671,-87.9365,8.5,0.32,23.11,-9999.0,'1111122,1111122,1111122' 
DISL,ioos:station:DISL:MHPA:1,2014-12-03T04:00:00Z,30.6671,-87.9365,8.5,1.16,27.52,-9999.0,'1111122,1111122,1111122' 
DISL,ioos:station:DISL:MHPA:1,2014-12-03T04:30:00Z,30.6671,-87.9365,8.5,0.97,26.44,-9999.0,'1111122,1111122,1111122' 
DISL,ioos:station:DISL:MHPA:1,2014-12-03T05:00:00Z,30.6671,-87.9365,8.5,0.62,49.72,-9999.0,'1111122,1111122,1111122' 
DISL,ioos:station:DISL:MHPA:1,2014-12-03T05:30:00Z,30.6671,-87.9365,8.5,0.79,19.67,-9999.0,'1111122,1111122,1111122' 
DISL,ioos:station:DISL:MHPA:1,2014-12-03T06:00:00Z,30.6671,-87.9365,8.5,1.53,10.35,-9999.0,'1111122,1111122,1111122' 
DISL,ioos:station:DISL:MHPA:1,2014-12-03T06:30:00Z,30.6671,-87.9365,8.5,1.59,5.874,-9999.0,'1111122,1111122,1111122' 
DISL,ioos:station:DISL:MHPA:1,2014-12-03T07:00:00Z,30.6671,-87.9365,8.5,1.33,8.38,-9999.0,'1111122,1111122,1111122' 
DISL,ioos:station:DISL:MHPA:1,2014-12-03T07:30:00Z,30.6671,-87.9365,8.5,1.61,6.828,-9999.0,'1111122,1111122,1111122' 
DISL,ioos:station:DISL:MHPA:1,2014-12-03T08:00:00Z,30.6671,-87.9365,8.5,2.15,14.61,-9999.0,'1111122,1111122,1111122' 
DISL,ioos:station:DISL:MHPA:1,2014-12-03T08:30:00Z,30.6671,-87.9365,8.5,1.69,1.175,-9999.0,'1111122,1111122,1111122' 
DISL,ioos:station:DISL:MHPA:1,2014-12-03T09:00:00Z,30.6671,-87.9365,8.5,1.67,7.468,-9999.0,'1111122,1111122,1111122' 
DISL,ioos:station:DISL:MHPA:1,2014-12-03T09:30:00Z,30.6671,-87.9365,8.5,1.52,10.5,-9999.0,'1111122,1111122,1111122' 
DISL,ioos:station:DISL:MHPA:1,2014-12-03T10:00:00Z,30.6671,-87.9365,8.5,1.1,4.893,-9999.0,'1111122,1111122,1111122' 
DISL,ioos:station:DISL:MHPA:1,2014-12-03T10:30:00Z,30.6671,-87.9365,8.5,1.63,7.069,-9999.0,'1111122,1111122,1111122' 
DISL,ioos:station:DISL:MHPA:1,2014-12-03T11:00:00Z,30.6671,-87.9365,8.5,1.54,3.342,-9999.0,'1111122,1111122,1111122' 
DISL,ioos:station:DISL:MHPA:1,2014-12-03T11:30:00Z,30.6671,-87.9365,8.5,1.76,345.3,-9999.0,'1111122,1111122,1111122' 
DISL,ioos:station:DISL:MHPA:1,2014-12-03T12:00:00Z,30.6671,-87.9365,8.5,1.6,360.0,-9999.0,'1111122,1111122,1111122' 
DISL,ioos:station:DISL:MHPA:1,2014-12-03T12:30:00Z,30.6671,-87.9365,8.5,1.76,357.9,-9999.0,'1111122,1111122,1111122' 
DISL,ioos:station:DISL:MHPA:1,2014-12-03T13:00:00Z,30.6671,-87.9365,8.5,1.6,15.31,-9999.0,'1111122,1111122,1111122' 
DISL,ioos:station:DISL:MHPA:1,2014-12-03T13:30:00Z,30.6671,-87.9365,8.5,1.4,341.2,-9999.0,'1111122,1111122,1111122' 
DISL,ioos:station:DISL:MHPA:1,2014-12-03T14:00:00Z,30.6671,-87.9365,8.5,1.92,355.0,-9999.0,'1111122,1111122,1111122' 
DISL,ioos:station:DISL:MHPA:1,2014-12-03T14:30:00Z,30.6671,-87.9365,8.5,1.8,11.51,-9999.0,'1111122,1111122,1111122' 
DISL,ioos:station:DISL:MHPA:1,2014-12-03T15:00:00Z,30.6671,-87.9365,8.5,2.26,349.6,-9999.0,'1111122,1111122,1111122' 
DISL,ioos:station:DISL:MHPA:1,2014-12-03T15:30:00Z,30.6671,-87.9365,8.5,2.08,331.1,-9999.0,'1111122,1111122,1111122' 
DISL,ioos:station:DISL:MHPA:1,2014-12-03T16:00:00Z,30.6671,-87.9365,8.5,1.14,336.1,-9999.0,'1111122,1111122,1111122' 
DISL,ioos:station:DISL:MHPA:1,2014-12-03T16:30:00Z,30.6671,-87.9365,8.5,0.69,351.6,-9999.0,'1111122,1111122,1111122' 
DISL,ioos:station:DISL:MHPA:1,2014-12-03T17:00:00Z,30.6671,-87.9365,8.5,1.35,207.3,-9999.0,'1111122,1111122,1111122' 
DISL,ioos:station:DISL:MHPA:1,2014-12-03T17:30:00Z,30.6671,-87.9365,8.5,1.6,232.3,-9999.0,'1111122,1111122,1111122' 
DISL,ioos:station:DISL:MHPA:1,2014-12-03T18:00:00Z,30.6671,-87.9365,8.5,1.19,233.2,-9999.0,'1111122,1111122,1111122' 
DISL,ioos:station:DISL:MHPA:1,2014-12-03T18:30:00Z,30.6671,-87.9365,8.5,0.86,244.2,-9999.0,'1111122,1111122,1111122' 
DISL,ioos:station:DISL:MHPA:1,2014-12-03T19:00:00Z,30.6671,-87.9365,8.5,1.79,98.4,-9999.0,'1111122,1111122,1111122' 
DISL,ioos:station:DISL:MHPA:1,2014-12-03T19:30:00Z,30.6671,-87.9365,8.5,1.36,247.3,-9999.0,'1111122,1111122,1111122' 
DISL,ioos:station:DISL:MHPA:1,2014-12-03T20:00:00Z,30.6671,-87.9365,8.5,1.34,243.4,-9999.0,'1111122,1111122,1111122' 
DISL,ioos:station:DISL:MHPA:1,2014-12-03T20:30:00Z,30.6671,-87.9365,8.5,1.64,207.0,-9999.0,'1111122,1111122,1111122' 
DISL,ioos:station:DISL:MHPA:1,2014-12-03T21:00:00Z,30.6671,-87.9365,8.5,2.49,160.7,-9999.0,'1111122,1111122,1111122' 
DISL,ioos:station:DISL:MHPA:1,2014-12-03T21:30:00Z,30.6671,-87.9365,8.5,2.08,153.9,-9999.0,'1111122,1111122,1111122' 
DISL,ioos:station:DISL:MHPA:1,2014-12-03T22:00:00Z,30.6671,-87.9365,8.5,1.63,158.4,-9999.0,'1111122,1111122,1111122' 
DISL,ioos:station:DISL:MHPA:1,2014-12-03T22:30:00Z,30.6671,-87.9365,8.5,1.71,140.6,-9999.0,'1111122,1111122,1111122' 
DISL,ioos:station:DISL:MHPA:1,2014-12-03T23:00:00Z,30.6671,-87.9365,8.5,1.93,174.8,-9999.0,'1111122,1111122,1111122' 
DISL,ioos:station:DISL:MHPA:1,2014-12-03T23:30:00Z,30.6671,-87.9365,8.5,0.73,183.4,-9999.0,'1111122,1111122,1111122' 
DISL,ioos:station:DISL:MHPA:1,2014-12-04T00:00:00Z,30.6671,-87.9365,8.5,1.16,203.5,-9999.0,'1111122,1111122,1111122' 
DISL,ioos:station:DISL:MHPA:1,2014-12-04T00:30:00Z,30.6671,-87.9365,8.5,2.02,157.6,-9999.0,'1111122,1111122,1111122' 
DISL,ioos:station:DISL:MHPA:1,2014-12-04T01:00:00Z,30.6671,-87.9365,8.5,1.13,233.9,-9999.0,'1111122,1111122,1111122' 
DISL,ioos:station:DISL:MHPA:1,2014-12-04T01:30:00Z,30.6671,-87.9365,8.5,0.17,287.8,-9999.0,'1111122,1111122,1111122' 
DISL,ioos:station:DISL:MHPA:1,2014-12-04T02:00:00Z,30.6671,-87.9365,8.5,0.37,40.08,-9999.0,'1111122,1111122,1111122' 
DISL,ioos:station:DISL:MHPA:1,2014-12-04T02:30:00Z,30.6671,-87.9365,8.5,0.46,333.1,-9999.0,'1111122,1111122,1111122' 
DISL,ioos:station:DISL:MHPA:1,2014-12-04T03:00:00Z,30.6671,-87.9365,8.5,0.48,24.11,-9999.0,'1111122,1111122,1111122' 
DISL,ioos:station:DISL:MHPA:1,2014-12-04T03:30:00Z,30.6671,-87.9365,8.5,0.28,55.44,-9999.0,'1111122,1111122,1111122' 
DISL,ioos:station:DISL:MHPA:1,2014-12-04T04:00:00Z,30.6671,-87.9365,8.5,0.11,50.07,-9999.0,'1111122,1111122,1111122' 
DISL,ioos:station:DISL:MHPA:1,2014-12-04T04:30:00Z,30.6671,-87.9365,8.5,0.17,28.51,-9999.0,'1111122,1111122,1111122' 
DISL,ioos:station:DISL:MHPA:1,2014-12-04T05:00:00Z,30.6671,-87.9365,8.5,0.35,5.443,-9999.0,'1111122,1111122,1111122' 
DISL,ioos:station:DISL:MHPA:1,2014-12-04T05:30:00Z,30.6671,-87.9365,8.5,0.12,97.4,-9999.0,'1111122,1111122,1111122' 
DISL,ioos:station:DISL:MHPA:1,2014-12-04T06:00:00Z,30.6671,-87.9365,8.5,0.45,350.9,-9999.0,'1111122,1111122,1111122' 
DISL,ioos:station:DISL:MHPA:1,2014-12-04T06:30:00Z,30.6671,-87.9365,8.5,0.74,48.25,-9999.0,'1111122,1111122,1111122' 
DISL,ioos:station:DISL:MHPA:1,2014-12-04T07:00:00Z,30.6671,-87.9365,8.5,0.89,62.96,-9999.0,'1111122,1111122,1111122' 
DISL,ioos:station:DISL:MHPA:1,2014-12-04T07:30:00Z,30.6671,-87.9365,8.5,1.52,8.17,-9999.0,'1111122,1111122,1111122' 
DISL,ioos:station:DISL:MHPA:1,2014-12-04T08:00:00Z,30.6671,-87.9365,8.5,1.05,352.3,-9999.0,'1111122,1111122,1111122' 
DISL,ioos:station:DISL:MHPA:1,2014-12-04T08:30:00Z,30.6671,-87.9365,8.5,1.44,356.4,-9999.0,'1111122,1111122,1111122' 
DISL,ioos:station:DISL:MHPA:1,2014-12-04T09:00:00Z,30.6671,-87.9365,8.5,1.68,21.43,-9999.0,'1111122,1111122,1111122' 
DISL,ioos:station:DISL:MHPA:1,2014-12-04T09:30:00Z,30.6671,-87.9365,8.5,0.37,6.582,-9999.0,'1111122,1111122,1111122' 
DISL,ioos:station:DISL:MHPA:1,2014-12-04T10:00:00Z,30.6671,-87.9365,8.5,0.18,3.409,-9999.0,'1111122,1111122,1111122' 
DISL,ioos:station:DISL:MHPA:1,2014-12-04T10:30:00Z,30.6671,-87.9365,8.5,0.19,53.61,-9999.0,'1111122,1111122,1111122' 
DISL,ioos:station:DISL:MHPA:1,2014-12-04T11:00:00Z,30.6671,-87.9365,8.5,0.2,310.9,-9999.0,'1111122,1111122,1111122' 
DISL,ioos:station:DISL:MHPA:1,2014-12-04T11:30:00Z,30.6671,-87.9365,8.5,0.44,338.3,-9999.0,'1111122,1111122,1111122' 
DISL,ioos:station:DISL:MHPA:1,2014-12-04T12:00:00Z,30.6671,-87.9365,8.5,0.7,27.29,-9999.0,'1111122,1111122,1111122' 
DISL,ioos:station:DISL:MHPA:1,2014-12-04T12:30:00Z,30.6671,-87.9365,8.5,0.0,0.0,-9999.0,'1114422,1114422,1111122' 
DISL,ioos:station:DISL:MHPA:1,2014-12-04T13:00:00Z,30.6671,-87.9365,8.5,0.79,320.2,-9999.0,'1111122,1111122,1111122' 
DISL,ioos:station:DISL:MHPA:1,2014-12-04T13:30:00Z,30.6671,-87.9365,8.5,1.27,323.0,-9999.0,'1111122,1111122,1111122' 
DISL,ioos:station:DISL:MHPA:1,2014-12-04T14:00:00Z,30.6671,-87.9365,8.5,0.89,316.2,-9999.0,'1111122,1111122,1111122' 
DISL,ioos:station:DISL:MHPA:1,2014-12-04T14:30:00Z,30.6671,-87.9365,8.5,0.78,310.4,-9999.0,'1111122,1111122,1111122' 
DISL,ioos:station:DISL:MHPA:1,2014-12-04T15:00:00Z,30.6671,-87.9365,8.5,2.43,102.9,-9999.0,'1111122,1111122,1111122' 
DISL,ioos:station:DISL:MHPA:1,2014-12-04T15:30:00Z,30.6671,-87.9365,8.5,3.0,111.5,-9999.0,'1111122,1111122,1111122' 
DISL,ioos:station:DISL:MHPA:1,2014-12-04T16:00:00Z,30.6671,-87.9365,8.5,2.35,133.6,-9999.0,'1111122,1111122,1111122' 
DISL,ioos:station:DISL:MHPA:1,2014-12-04T16:30:00Z,30.6671,-87.9365,8.5,3.66,137.5,-9999.0,'1111122,1111122,1111122' 
DISL,ioos:station:DISL:MHPA:1,2014-12-04T17:00:00Z,30.6671,-87.9365,8.5,2.49,203.2,-9999.0,'1111122,1111122,1111122' 
DISL,ioos:station:DISL:MHPA:1,2014-12-04T17:30:00Z,30.6671,-87.9365,8.5,2.14,215.8,-9999.0,'1111122,1111122,1111122' 
DISL,ioos:station:DISL:MHPA:1,2014-12-04T18:00:00Z,30.6671,-87.9365,8.5,0.51,226.0,-9999.0,'1111122,1111122,1111122' 
DISL,ioos:station:DISL:MHPA:1,2014-12-04T18:30:00Z,30.6671,-87.9365,8.5,3.27,232.0,-9999.0,'1111122,1111122,1111122' 
DISL,ioos:station:DISL:MHPA:1,2014-12-04T19:00:00Z,30.6671,-87.9365,8.5,3.58,231.7,-9999.0,'1111122,1111122,1111122' 
DISL,ioos:station:DISL:MHPA:1,2014-12-04T19:30:00Z,30.6671,-87.9365,8.5,2.56,229.8,-9999.0,'1111122,1111122,1111122' 
DISL,ioos:station:DISL:MHPA:1,2014-12-04T20:00:00Z,30.6671,-87.9365,8.5,2.56,211.9,-9999.0,'1111122,1111122,1111122' 
DISL,ioos:station:DISL:MHPA:1,2014-12-04T20:30:00Z,30.6671,-87.9365,8.5,1.37,220.0,-9999.0,'1111122,1111122,1111122' 
DISL,ioos:station:DISL:MHPA:1,2014-12-04T21:00:00Z,30.6671,-87.9365,8.5,2.54,169.9,-9999.0,'1111122,1111122,1111122' 
DISL,ioos:station:DISL:MHPA:1,2014-12-04T21:30:00Z,30.6671,-87.9365,8.5,2.96,189.7,-9999.0,'1111122,1111122,1111122' 
DISL,ioos:station:DISL:MHPA:1,2014-12-04T22:00:00Z,30.6671,-87.9365,8.5,2.95,168.8,-9999.0,'1111122,1111122,1111122' 
DISL,ioos:station:DISL:MHPA:1,2014-12-04T22:30:00Z,30.6671,-87.9365,8.5,2.36,185.7,-9999.0,'1111122,1111122,1111122' 
DISL,ioos:station:DISL:MHPA:1,2014-12-04T23:00:00Z,30.6671,-87.9365,8.5,1.16,112.3,-9999.0,'1111122,1111122,1111122' 
DISL,ioos:station:DISL:MHPA:1,2014-12-04T23:30:00Z,30.6671,-87.9365,8.5,1.63,128.9,-9999.0,'1111122,1111122,1111122' 
DISL,ioos:station:DISL:MHPA:1,2014-12-05T00:00:00Z,30.6671,-87.9365,8.5,2.68,128.6,-9999.0,'1111122,1111122,1111122' 
DISL,ioos:station:DISL:MHPA:1,2014-12-05T00:30:00Z,30.6671,-87.9365,8.5,2.9,121.3,-9999.0,'1111122,1111122,1111122' 
DISL,ioos:station:DISL:MHPA:1,2014-12-05T01:00:00Z,30.6671,-87.9365,8.5,3.51,116.3,-9999.0,'1111122,1111122,1111122' 
DISL,ioos:station:DISL:MHPA:1,2014-12-05T01:30:00Z,30.6671,-87.9365,8.5,2.39,97.5,-9999.0,'1111122,1111122,1111122' 
DISL,ioos:station:DISL:MHPA:1,2014-12-05T02:00:00Z,30.6671,-87.9365,8.5,2.54,111.9,-9999.0,'1111122,1111122,1111122' 
DISL,ioos:station:DISL:MHPA:1,2014-12-05T02:30:00Z,30.6671,-87.9365,8.5,3.14,108.2,-9999.0,'1111122,1111122,1111122' 
DISL,ioos:station:DISL:MHPA:1,2014-12-05T03:00:00Z,30.6671,-87.9365,8.5,3.23,104.3,-9999.0,'1111122,1111122,1111122' 
DISL,ioos:station:DISL:MHPA:1,2014-12-05T03:30:00Z,30.6671,-87.9365,8.5,2.84,99.8,-9999.0,'1111122,1111122,1111122' 
DISL,ioos:station:DISL:MHPA:1,2014-12-05T04:00:00Z,30.6671,-87.9365,8.5,2.22,96.0,-9999.0,'1111122,1111122,1111122' 
DISL,ioos:station:DISL:MHPA:1,2014-12-05T04:30:00Z,30.6671,-87.9365,8.5,2.26,102.4,-9999.0,'1111122,1111122,1111122' 